Location: Banksville Park
(38.5557°N, 75.1182°W)
Time: 12:23:52
(UTC+00:00)

CZ-4B R/B - Pass Details

Date: 19 September 2020
Orbit: 391 x 461 km, 97.6° (Epoch: 23 October)

Event Time Altitude Azimuth Distance (km) Brightness Sun altitude
Rises 09:18:31 0° 155° (SSE) 2,298 5.1 -17.7°
Reaches altitude 10° 09:20:30 10° 149° (SSE) 1,453 4.2 -17.3°
Maximum altitude 09:23:29 46° 75° (ENE) 558 2.3 -16.7°
Drops below altitude 10° 09:26:34 10° 0° (N) 1,499 4.2 -16.2°
Sets 09:28:38 0° 354° (N) 2,382 5.2 -15.8°
